Home > Weather > Steinfurt > Past weeks

Flag for Germany Weather for the Past 2 Weeks in Steinfurt, North Rhine-Westphalia, Germany

Now
39 °F

Chilly.


Feels Like: 39 °F
Forecast: 51 / 73 °F
Wind: 1 mph from North

Location: Rheine-Bentlage

Current Time: May 5, 2016 at 4:08:26 AM

Latest Report: May 5, 2016 at 3:20 AM


Visibility: N/A

Pressure: 30.36 "Hg

Humidity: 87%

Dew Point: 36 °F

Location of SteinfurtLocation

Historic Weather in Steinfurt — Graph

°F

Steinfurt Temperature Yesterday

Maximum temperature yesterday: 59 °F (at 4:20 PM)
Minimum temperature yesterday: 34 °F (at 5:20 AM)
Average temperature yesterday: 48 °F

High & Low Weather Summary for the Past Weeks

 TemperatureHumidityPressure
High66 °F (May 2, 2:20 PM)100% (Apr 20, 3:20 AM)30.48 "Hg (Apr 20, 3:20 AM)
Low32 °F (Apr 20, 6:20 AM)34% (May 4, 6:20 PM)29.39 "Hg (Apr 26, 8:20 AM)
Average45 °F73%30.03 "Hg
* Reported Apr 20 2:20 AM — May 5 2:20 AM, Steinfurt, Weather by CustomWeather, © 2016

Note: Actual official high and low records may vary slightly from our data, if they occured in-between our weather recording intervals... More about our weather records

Advertising

Steinfurt Weather History for the Previous 24 Hours

Scroll right to see more
 ConditionsComfort  
Time TempWeatherWind HumidityBarometerVisibility
2:20 AM
Thu, May 5
41 °FQuite cool.No wind81%30.36 "HgN/A
1:20 AM41 °FQuite cool.1 mph81%30.36 "HgN/A
12:20 AM43 °FQuite cool.3 mph76%30.36 "HgN/A
11:20 PM
Wed, May 4
45 °FQuite cool.2 mph71%30.36 "HgN/A
10:20 PM46 °FCool.1 mph62%30.36 "HgN/A
9:20 PM52 °FCool.3 mph47%30.36 "HgN/A
8:20 PM55 °FRefreshingly cool.7 mph44%30.36 "HgN/A
7:20 PM59 °FRefreshingly cool.7 mph34%30.36 "HgN/A
6:20 PM59 °FRefreshingly cool.7 mph34%30.36 "HgN/A
5:20 PM59 °FRefreshingly cool.8 mph36%30.36 "HgN/A
4:20 PM59 °FRefreshingly cool.7 mph39%30.39 "HgN/A
3:20 PM57 °FRefreshingly cool.6 mph39%30.39 "HgN/A
2:20 PM55 °FScattered clouds.7 mph41%30.39 "HgN/A
1:20 PM55 °FScattered clouds.3 mph44%30.42 "HgN/A
12:20 PM54 °FScattered clouds.5 mph47%30.42 "HgN/A
11:20 AM54 °FScattered clouds.7 mph47%30.42 "HgN/A
10:20 AM52 °FPassing clouds.2 mph62%30.42 "HgN/A
9:20 AM50 °FPassing clouds.2 mph71%30.42 "HgN/A
8:20 AM46 °FPassing clouds.1 mph82%30.42 "HgN/A
7:20 AM37 °FPassing clouds.No wind100%30.39 "HgN/A
6:20 AM34 °FFog.No wind100%30.39 "HgN/A
5:20 AM34 °FChilly.1 mph100%30.39 "HgN/A
4:20 AM36 °FChilly.No wind93%30.36 "HgN/A
Weather by CustomWeather, © 2016

See weather overviewHow to use our weather pages